Japanese version Home page |
Updated on April 21, 2003 |
Profile
|
Orbital ElementsEpoch = 2000 Aug. 4.0 TT T = 2000 Aug. 17.6199 TT Peri. = 357.7420 e = 0.557054 Node = 39.0471 2000.0 q = 1.596837 AU Incl. = 20.7496 a = 3.605034 AU n = 0.1439926 P = 6.845 years
|
Finding Charts
|
Magnitudes Graphm1 = 15.8 + 5 log d + 5.0 log r
|
The orbital elements are published on IAUC 8118.
|